Terminal Aerodrome Forecast
Issued by NWS Central Illinois

Home | Current Version | Previous Version | Text Only | Print | Product List | Glossary On
Versions: 1 2 3 4 5 6 7 8 9 10 11 12 13 14 15 16 17 18 19 20 21 22
560
FTUS43 KILX 270532
TAFSPI
TAF
KSPI 270532Z 2706/2806 VRB04KT P6SM SKC
      TEMPO 2711/2713 4SM BR
     FM271600 12006KT P6SM FEW050=

USA.gov is the U.S. government's official web portal to all federal, state and local government web resources and services.